Weather Roundup
Issued by NWS Springfield, MO

Home | Current Version | Previous Version | Text Only | Print | Product List | Glossary On
Versions: 1 2 3 4 5 6 7 8 9 10 11 12 13 14 15 16 17 18 19 20 21 22 23 24 25 26 27 28 29 30 31 32 33 34 35 36 37 38 39 40 41 42 43 44 45 46 47 48 49 50
000
NZUS99 KSGF 232257
HRRSGF

HOURLY WEATHER
NATIONAL WEATHER SERVICE SPRINGFIELD MO
600 PM CDT SUN JUL 23 2017

......SGF CWA......

CITY           SKY/WX    TMP DP  RH WIND       PRES   REMARKS
SPRINGFIELD    MOSUNNY   92  66  42 N6        29.91F HX  94
JOPLIN         SUNNY     94  67  41 VRB7      29.89F HX  97
WEST PLAINS    CLOUDY    86  66  51 N7        29.91F
ROLLA          MOSUNNY   86  71  60 S6        29.90S HX  91
BRANSON        PTSUNNY   84  66  54 N5        29.92F

......SURROUNDING SGF CWA......

CITY           SKY/WX    TMP DP  RH WIND       PRES   REMARKS
CHANUTE        MOSUNNY   93  69  45 NE7       29.89F HX  98
PARSONS        SUNNY     90  70  51 MISG      29.89F HX  95
COFFEYVILLE    SUNNY     93  69  45 N7        29.87F HX  98
EMPORIA        CLOUDY    91  71  51 NE6       29.90F HX  97
HARRISON AR    CLOUDY    82  69  64 NW5       29.90F

......KANSAS AND MISSOURI......

CITY           SKY/WX    TMP DP  RH WIND       PRES   REMARKS
KANSAS CTY INT MOSUNNY   91  74  57 W7        29.89F HX 100
SEDALIA        SUNNY     89  73  59 NW5       29.91R HX  97
ST JOSEPH      SUNNY     89  75  63 N8        29.89S HX  99
ST LOUIS       MOSUNNY   93  57  29 SW6       29.86R HX  91
WICHITA        MOSUNNY   92  70  48 N5        29.89F HX  97
TOPEKA         SUNNY     92  72  51 E3        29.88F HX  99
OLATHE         SUNNY     90  72  55 VRB3      29.90F HX  97

......TENNESSEE......

CITY           SKY/WX    TMP DP  RH WIND       PRES   REMARKS
MEMPHIS        NOT AVBL
NASHVILLE      PTSUNNY   91  73  55 CALM      29.81F HX  99

......ARKANSAS.......

CITY           SKY/WX    TMP DP  RH WIND       PRES   REMARKS
FAYETTEVILLE   CLOUDY    74  71  91 CALM      29.91F
FT SMITH       CLOUDY    81  72  74 CALM      29.87R
LITTLE ROCK    PTSUNNY   90  78  68 CALM      29.82F HX 104

......OKLAHOMA.......

CITY           SKY/WX    TMP DP  RH WIND       PRES   REMARKS
TULSA          PTSUNNY   93  65  39 NE9       29.83F HX  95
PONCA CITY     SUNNY     95  66  38 E8        29.85F HX  98
MCALESTER      PTSUNNY   94  73  50 SW9       29.80R THUNDER HX 103
OKLAHOMA CITY  CLOUDY    90  67  46 E21       29.87R HX  93

......IOWA............

CITY           SKY/WX    TMP DP  RH WIND       PRES   REMARKS
DES MOINES     NOT AVBL
QUAD CITIES    SUNNY     84  61  45 NW16G26   29.83R

......ILLINOIS........

CITY           SKY/WX    TMP DP  RH WIND       PRES   REMARKS
QUINCY         NOT AVBL
CHICAGO        CLOUDY    71  66  84 W7        29.80R




USA.gov is the U.S. government's official web portal to all federal, state and local government web resources and services.